Overview Statistics Trail Chart Weather Telemetry Raw packets
 

This is the latest recevied weather packets stored in our database for station/object IW1RCO-13. If no packets are shown the sender has not sent any weather packets the latest 10 day(s).

<< 1 2 3 4 5 6 >>
Time Temp. Humidity Pressure Rain* Wind** Luminosity Snow
1788683673 27.78° C 58% 1021.5 hPa - - - -
1788683369 27.78° C 60% 1021.1 hPa - - - -
1788683073 27.22° C 60% 1021.4 hPa - - - -
1788682769 27.22° C 62% 1021.5 hPa - - - -
1788682472 27.22° C 62% 1021.2 hPa - - - -
1788682169 26.67° C 62% 1020.9 hPa - - - -
1788681872 26.11° C 65% 1020.8 hPa - - - -
1788681569 25.56° C 66% 1020.6 hPa - - - -
1788681272 25.56° C 66% 1020.8 hPa - - - -
1788680968 25.56° C 66% 1021.3 hPa - - - -
1788680671 25.56° C 67% 1020.2 hPa - - - -
1788680368 25° C 64% 1020.7 hPa - - - -
1788680071 25° C 64% 1020 hPa - - - -
1788679768 25.56° C 66% 1020 hPa - - - -
1788679471 25° C 68% 1020.8 hPa - - - -
1788679167 24.44° C 68% 1020.2 hPa - - - -
1788678871 24.44° C 69% 1020.2 hPa - - - -
1788676773 23.33° C 74% 1020 hPa - - - -
1788676470 22.78° C 72% 1020.3 hPa - - - -
1788676173 22.78° C 74% 1020 hPa - - - -
1788675869 22.22° C 75% 1020.3 hPa - - - -
1788675597 22.22° C 75% 1019.7 hPa - - - -
1788675269 21.67° C 76% 1019.8 hPa - - - -
1788674972 20.56° C 79% 1019.8 hPa - - - -
1788674669 20° C 84% 1019.8 hPa - - - -

* Rain since midnight (hover to see other rain measurements)
** Current wind speed in m/s (hover to see current wind gust speed)